{"data":{"norad_id":56788,"intl_designator":"2023-078X","name":"STARLINK-6336","alt_names":[],"object_type":"PAYLOAD","status":"ACTIVE","operator":null,"country":"US","launch_date":"2023-05-31","launch_site_code":"AFWTR","launch_vehicle":null,"mission":null,"orbit_class":"UNKNOWN","rcs_meters":null,"size_class":null,"mass_kg":null,"dimensions":null,"purposes":["comms"],"wikipedia_slug":null,"has_3d_model":false,"image_url":null,"decayed_at":null,"tle_current":{"epoch":"2026-09-20T22:00:03.000096Z","epoch_age_seconds":78954,"freshness":"FRESH","line1":"1 56788U 23078X   26263.91670139  .00004204  00000+0  29018-3 0  9991","line2":"2 56788  70.0004 192.1315 0002153 269.3500 277.3858 15.06549994  5776","mean_motion":15.06549994,"eccentricity":0.0002153,"inclination_deg":70.0004,"raan_deg":192.1315,"arg_perigee_deg":269.35,"mean_anomaly_deg":277.3858,"bstar":0.00029018,"rev_number":577,"period_min":95.582622928874,"perigee_km":545.26095749571,"apogee_km":548.24281465005,"semimajor_km":6924.8888860729,"source":"CELESTRAK","updated_at":"2026-09-21T09:00:33.507308Z"}}}